shoulder
new_line
new_line
first
second
third
Al di la della Luna; Beyond the Moon; Astrophotography; Astrofotografia; Danilo Pivato
 
 
         
         
2001

Orbital Elements

Epoch 2001 May 115.0 TT = JDT 2453040.5
T 2001 May 24.52041 TT                                                                Mardsen
q   0.7790265            (2000.0)                                    P               Q
n   0.0008544      Peri.  295.32886           -0.47639606     +0.69524253
a   0.0000023      Node 295.12525           -0.42477634     +0.71796682
e   0.9993344      Incl.     36.47496           -0.76981287     -0.03408035
P   ---
 
 
         
         
2001.07.21
 
         
         
       
         
         
         
         
         
         
         

 

       
 
Since: 01/01/2004
 
       
 
Since: 01/11/2010